Regional Weather Roundup
Issued by NWS

Home | Current Version | Previous Version | Graphics & Text | Print | Product List | Glossary On
Versions: 1 2 3 4 5 6 7 8 9 10 11 12 13 14 15 16 17 18 19 20 21 22 23 24 25 26 27
000
ASUS45 KSLC 241510
RWRUT

UTAH REGIONAL WEATHER ROUNDUP
NATIONAL WEATHER SERVICE SALT LAKE CITY UT
900 AM MDT SUN JUL 24 2016

UTZ001>011-023>025-241600-

NORTHERN UTAH

CITY           SKY/WX    TMP DP  RH WIND       PRES   REMARKS
BRIGHAM CITY     N/A     66  33  29 NW5       30.13R
HILL AFB       SUNNY     67  31  26 E17       30.15R
LOGAN          SUNNY     63  38  39 CALM      30.18S
OGDEN          SUNNY     73  31  21 CALM      30.13R
PROVO AIRPORT  SUNNY     68  37  32 SE6       30.15R
SALT LAKE CITY MOSUNNY   75  35  23 CALM      30.12R
VERNAL         SUNNY     78  41  26 SW5       30.17R
WENDOVER       SUNNY     75  28  17 E6        30.14R
HEBER CITY     SUNNY     59  34  38 CALM      30.23S

$$

UTZ012>022-026-027-241600-

SOUTHERN/CENTRAL UTAH

CITY           SKY/WX    TMP DP  RH WIND       PRES   REMARKS
BLANDING       SUNNY     80  43  26 CALM      30.29R
BRYCE CANYON   SUNNY     71  38  29 NW5       30.35S
CEDAR CITY     SUNNY     75  37  25 NE6       30.18R
DELTA          SUNNY     72  28  20 S5        30.15R
MILFORD        SUNNY     74  28  18 N8        30.16R
MOAB/CYNLANDS  SUNNY     87  40  19 E13       30.07R
PRICE          SUNNY     80  32  17 CALM      30.19R
ST GEORGE      SUNNY     88  43  20 CALM      29.99R
KANAB          SUNNY     77  41  27 CALM      30.18R

$$

REGIONAL REPORTS     COLORADO/ARIZONA

CITY           SKY/WX    TMP DP  RH WIND       PRES   REMARKS
CRAIG, CO      SUNNY     73  43  33 VRB5      30.26S
GRAND JUNCTION SUNNY     80  44  27 SE18      30.14R
RIFLE          SUNNY     77  46  33 NE9       30.21S
MONTROSE       SUNNY     76  46  34 CALM      30.23F
CORTEZ         CLOUDY    79  42  26 W3        30.21R
PAGE, AZ       SUNNY     88  39  17 E3        30.06R
GRAND CANYON   MOSUNNY   77  49  37 VRB3      30.30R
KINGMAN        SUNNY     89  51  27 CALM      30.03R
FLAGSTAFF      MOSUNNY   73  52  47 NW3       30.32R

$$

REGIONAL REPORTS    NEVADA/IDAHO/WYOMING

CITY           SKY/WX    TMP DP  RH WIND       PRES   REMARKS
LAS VEGAS, NV  SUNNY     92  40  16 W5        29.84R
ELY            SUNNY     62  24  23 S6        30.26S
ELKO           SUNNY     62  29  28 CALM      30.20S
POCATELLO, ID  SUNNY     70  28  21 SW7       30.19S
BURLEY         SUNNY     63  39  41 CALM      30.16R
EVANSTON, WY   SUNNY     64  26  23 S5        30.32R
ROCK SPRINGS   SUNNY     65  33  30 E8        30.30S
KEMMERER         N/A     63  30  29 N7        30.34R

$$




USA.gov is the U.S. government's official web portal to all federal, state and local government web resources and services.